User: anonymous   Login
Location: Churchill
(58.7670°N, 94.1670°W)
Time: 03:24:29
(UTC-05:00)
Language:

Cosmos 1315 Rocket - Orbit

View from above orbital plane
View from above orbital plane
View from above satellite
View from above satellite

Ground track
Ground track

The orbit data is extracted from the following two-line orbital elements,

1 12904U 81103B   18145.62135855 +.00000798 +00000-0 +53432-4 0  9998
2 12904 081.1784 244.4086 0028714 020.2942 339.9414 15.05502011544125
Epoch (UTC): 25 May 2018 14:54:45
Eccentricity: 0.0028714
inclination: 81.1784°
perigee height: 530 km
apogee height: 570 km
right ascension of ascending node: 244.4086°
argument of perigee: 20.2942°
revolutions per day: 15.05502011
mean anomaly at epoch: 339.9414°
orbit number at epoch: 54412

The dashed part of the orbit path shows where the satellite is in the earth's shadow,  

DLR